Location: Althorst
(53.6379°N, 10.7715°E)
Time: 06:30:09
(UTC+00:00)

H-2A R/B - Pass Details

Date: 10 December 2019
Orbit: 734 x 836 km, 98.2° (Epoch: 27 January)

Event Time Altitude Azimuth Distance (km) Brightness Sun altitude
Exits shadow 17:53:50 13° 4° (N) 2,061 4.1 -24.7°
Drops below altitude 10° 17:54:30 10° 0° (N) 2,289 4.4 -24.8°
Sets 17:56:59 0° 351° (N) 3,205 5.3 -25.2°
